CO3D F3

operational
NORAD ID: 64900 Int'l Des: 2025-156 Owner: CNES Country: F
LEOCIRCULARRETROGRADESSO

About CO3D F3

Description loading...

Live Position

Loading 3D Globe...

Upcoming Passes

Altitude History

Altitude vs Time

uPlot chart will show altitude changes over time

Two-Line Element Set

1 64900U 25156B 25278.51927355 .00014866 00000-0 68858-3 0 9992
2 64900 97.4341 355.8686 0001152 340.0578 20.0612 15.20195429 10848
Epoch: Oct 5, 2025 • Age: 19 hours

Current Status

Altitude 515.9 km
Velocity 7.61 km/s
Sub-Earth Point 62.69°N, 148.59°W
Launch Date Jul 26, 2025
Age 0.1 years
Type earth observation

Technical Details

Classification Payload
Mass 285.00 kg
Dry Mass 285.00 kg
Total Mass 285.00 kg
Length 1.20 m
Diameter 0.50 m
Span 2.50 m
Shape Box+ 2 pan
Manufacturer ADST
Bus Type Astrobus-SE
Phase Status In Orbit
Owner/State CNES/F

Large Constellations

Loading constellations...